Date String (YYYY-MM-DD hh:mm:ss) UTC,Instrument flags,absolute air pressure of the measurement (hPa),sample flow rate (lpm),inlet stack bypass flow (lpm),air temperature of the measurement (°C),ambient temperature measured by the external sensor (°C),aerosol sample conditioner tube jacket temperature (°C),OPC LED temperature (°C),internal box temperature (°C),relative humidity of the measurement (%),span deviation,mass concentration of particles derived from Lorenz-Mie calculation of OPC scattering (μg/m³),mass concentration of particles derived from Lorenz-Mie calculation of OPC scattering (μg/m³),mass concentration of particles derived from Lorenz-Mie calculation of OPC scattering (μg/m³)
DateTimeUTC,F1_M11,P_M11,Q1_M11,Q2_M11,T1_M11,T2_M11,T3_M11,T4_M11,T5_M11,U1_M11,ZSPAN_M11,X2_M11,X0_M11,X1_M11
2024-05-17 15:00:00,SystemResetWarning,0822.9,4.99,000.00,024.3,022.4,000.0,032.9,025.6,015.1,0000.0,0002.83,0008.59,0002.04
2024-05-17 15:01:00,SystemResetWarning,0823.0,4.99,000.00,024.3,022.7,000.0,032.8,025.7,014.8,0000.0,0002.85,0008.94,0002.03
2024-05-17 15:02:00,SystemResetWarning,0823.0,5.01,000.00,024.3,023.0,000.0,032.7,026.0,015.6,0000.0,0002.88,0008.88,0002.04
2024-05-17 15:03:00,SystemResetWarning,0823.0,5.01,000.00,024.4,023.2,000.0,032.7,026.1,014.7,0000.0,0002.89,0008.80,0002.04
2024-05-17 15:04:00,SystemResetWarning,0822.9,4.99,000.00,024.4,023.5,000.0,032.7,026.2,014.5,0000.0,0002.90,0008.44,0002.04
2024-05-17 15:05:00,SystemResetWarning,0823.1,5.00,000.00,024.5,023.7,000.0,032.7,026.3,015.3,0000.0,0002.94,0008.65,0002.05
2024-05-17 15:06:00,SystemResetWarning,0823.1,5.00,000.00,024.5,023.8,000.0,032.7,026.3,015.3,0000.0,0002.98,0008.86,0002.06
2024-05-17 15:07:00,SystemResetWarning,0823.2,5.00,000.00,024.6,024.0,000.0,032.7,026.4,014.6,0000.0,0002.97,0008.78,0002.05
2024-05-17 15:08:00,SystemResetWarning,0823.0,5.00,000.00,024.7,024.1,000.0,032.7,026.5,014.8,0000.0,0003.01,0008.44,0002.05
2024-05-17 15:09:00,SystemResetWarning,0822.9,4.99,000.00,024.7,024.2,000.0,032.7,026.6,014.8,0000.0,0003.01,0008.00,0002.06
2024-05-17 15:10:00,SystemResetWarning,0823.0,5.00,000.00,024.8,024.2,000.0,032.8,026.5,014.1,0000.0,0003.04,0008.41,0002.09
2024-05-17 15:11:00,SystemResetWarning,0822.9,5.00,000.00,024.6,022.6,000.0,032.9,025.8,014.1,0000.0,0003.06,0008.46,0002.11
2024-05-17 15:12:00,SystemResetWarning,0822.9,5.01,000.00,024.2,021.2,000.0,032.9,025.0,014.7,0000.0,0003.08,0008.17,0002.15
2024-05-17 15:13:00,SystemResetWarning,0822.9,5.01,000.00,024.1,021.7,000.0,032.8,025.2,014.9,0000.0,0003.10,0008.19,0002.18
2024-05-17 15:14:00,SystemResetWarning,0822.8,5.00,000.00,024.1,022.1,000.0,032.7,025.4,014.8,0000.0,0003.15,0008.27,0002.22
2024-05-17 15:15:00,SystemResetWarning,0823.0,5.00,000.00,024.1,022.5,000.0,032.6,025.6,014.8,0000.0,0003.16,0008.35,0002.25
2024-05-17 15:16:00,SystemResetWarning,0823.1,4.99,000.00,024.2,022.8,000.0,032.6,025.7,014.9,0000.0,0003.16,0008.17,0002.28
2024-05-17 15:17:00,SystemResetWarning,0823.0,5.00,000.00,024.2,023.1,000.0,032.5,025.9,015.4,0000.0,0003.18,0007.96,0002.32
2024-05-17 15:18:00,SystemResetWarning,0823.1,4.99,000.00,024.3,023.3,000.0,032.5,026.0,015.0,0000.0,0003.22,0007.90,0002.36
2024-05-17 15:19:00,SystemResetWarning,0822.9,5.00,000.00,024.3,023.5,000.0,032.5,026.1,014.4,0000.0,0003.23,0008.05,0002.42
2024-05-17 15:20:00,SystemResetWarning,0822.9,5.00,000.00,024.4,023.7,000.0,032.5,026.3,014.5,0000.0,0003.25,0008.43,0002.48
2024-05-17 15:21:00,SystemResetWarning,0823.1,5.01,000.00,024.5,023.8,000.0,032.5,026.3,014.9,0000.0,0003.22,0007.91,0002.52
2024-05-17 15:22:00,SystemResetWarning,0822.9,5.00,000.00,024.5,024.0,000.0,032.6,026.4,014.5,0000.0,0003.23,0008.05,0002.57
2024-05-17 15:23:00,SystemResetWarning,0822.9,4.99,000.00,024.6,024.1,000.0,032.6,026.5,014.6,0000.0,0003.26,0008.43,0002.63
2024-05-17 15:24:00,SystemResetWarning,0822.9,4.99,000.00,024.6,023.2,000.0,032.7,026.0,014.4,0000.0,0003.28,0008.49,0002.72
2024-05-17 15:25:00,SystemResetWarning,0822.8,5.00,000.00,024.2,021.4,000.0,032.7,025.0,014.4,0000.0,0003.34,0008.73,0002.82
2024-05-17 15:26:00,SystemResetWarning,0822.9,5.02,000.00,024.0,021.5,000.0,032.7,025.0,014.9,0000.0,0003.43,0009.26,0002.97
2024-05-17 15:27:00,SystemResetWarning,0822.8,4.99,000.00,024.0,021.9,000.0,032.6,025.2,015.9,0000.0,0003.51,0009.19,0003.11
2024-05-17 15:28:00,SystemResetWarning,0822.7,4.99,000.00,024.0,022.3,000.0,032.5,025.4,015.3,0000.0,0003.60,0009.06,0003.19
2024-05-17 15:29:00,SystemResetWarning,0822.7,5.01,000.00,024.0,022.6,000.0,032.4,025.6,014.8,0000.0,0003.68,0009.18,0003.28
2024-05-17 15:30:00,SystemResetWarning,0822.9,5.01,000.00,024.1,022.9,000.0,032.4,025.7,014.7,0000.0,0003.80,0008.93,0003.37
2024-05-17 15:31:00,SystemResetWarning,0822.7,5.00,000.00,024.1,023.2,000.0,032.4,025.9,014.8,0000.0,0003.92,0008.58,0003.46
2024-05-17 15:32:00,SystemResetWarning,0822.7,5.00,000.00,024.2,023.4,000.0,032.4,026.0,015.4,0000.0,0004.03,0008.67,0003.55
2024-05-17 15:33:00,SystemResetWarning,0822.8,5.00,000.00,024.3,023.6,000.0,032.4,026.1,015.3,0000.0,0004.10,0008.96,0003.64
2024-05-17 15:34:00,SystemResetWarning,0822.7,5.00,000.00,024.3,023.7,000.0,032.4,026.2,014.8,0000.0,0004.17,0008.91,0003.70
2024-05-17 15:35:00,SystemResetWarning,0822.7,5.00,000.00,024.4,023.9,000.0,032.5,026.3,014.6,0000.0,0004.24,0008.90,0003.76
2024-05-17 15:36:00,SystemResetWarning,0822.7,5.00,000.00,024.4,024.0,000.0,032.5,026.3,014.6,0000.0,0004.28,0009.93,0003.82
2024-05-17 15:37:00,SystemResetWarning,0822.7,5.00,000.00,024.5,023.7,000.0,032.6,026.1,014.6,0000.0,0004.27,0009.51,0003.85
2024-05-17 15:38:00,SystemResetWarning,0822.7,4.99,000.00,024.2,021.9,000.0,032.6,025.2,014.8,0000.0,0004.32,0010.02,0003.89
2024-05-17 15:39:00,SystemResetWarning,0822.7,5.02,000.00,023.9,021.3,000.0,032.6,024.8,014.9,0000.0,0004.37,0010.09,0003.95
2024-05-17 15:40:00,SystemResetWarning,0822.9,4.99,000.00,023.9,021.8,000.0,032.6,025.0,014.8,0000.0,0004.38,0010.27,0003.98
2024-05-17 15:41:00,SystemResetWarning,0823.0,4.99,000.00,023.9,022.2,000.0,032.4,025.3,014.5,0000.0,0004.36,0010.91,0003.97
2024-05-17 15:42:00,SystemResetWarning,0822.9,5.01,000.00,023.9,022.5,000.0,032.4,025.5,014.4,0000.0,0004.36,0010.96,0003.95
2024-05-17 15:43:00,SystemResetWarning,0822.7,5.01,000.00,024.0,022.8,000.0,032.3,025.6,014.9,0000.0,0004.37,0011.56,0003.96
2024-05-17 15:44:00,SystemResetWarning,0822.8,5.00,000.00,024.1,023.1,000.0,032.3,025.8,014.1,0000.0,0004.39,0011.41,0003.96
2024-05-17 15:45:00,SystemResetWarning,0822.8,4.99,000.00,024.1,023.3,000.0,032.3,025.9,014.7,0000.0,0004.40,0010.88,0003.95
2024-05-17 15:46:00,SystemResetWarning,0822.7,5.00,000.00,024.2,023.5,000.0,032.3,026.0,015.2,0000.0,0004.41,0010.87,0003.95
2024-05-17 15:47:00,SystemResetWarning,0822.7,5.00,000.00,024.3,023.7,000.0,032.3,026.1,014.9,0000.0,0004.42,0009.71,0003.95
2024-05-17 15:48:00,SystemResetWarning,0822.6,5.00,000.00,024.3,023.8,000.0,032.3,026.2,014.9,0000.0,0004.43,0009.46,0003.95
2024-05-17 15:49:00,SystemResetWarning,0822.7,5.01,000.00,024.4,024.0,000.0,032.4,026.3,015.6,0000.0,0004.43,0008.87,0003.96
2024-05-17 15:50:00,SystemResetWarning,0822.8,4.99,000.00,024.4,023.3,000.0,032.5,025.9,015.2,0000.0,0004.44,0008.84,0003.96
2024-05-17 15:51:00,SystemResetWarning,0822.6,5.00,000.00,024.1,021.4,000.0,032.5,025.0,015.1,0000.0,0004.51,0008.76,0003.99
2024-05-17 15:52:00,SystemResetWarning,0822.6,5.02,000.00,023.8,021.3,000.0,032.5,024.9,015.6,0000.0,0004.60,0008.22,0004.07
2024-05-17 15:53:00,SystemResetWarning,0822.4,4.98,000.00,023.8,021.8,000.0,032.4,025.1,015.3,0000.0,0004.65,0008.26,0004.14
2024-05-17 15:54:00,SystemResetWarning,0822.5,4.99,000.00,023.8,022.2,000.0,032.3,025.3,015.5,0000.0,0004.75,0007.86,0004.21
2024-05-17 15:55:00,SystemResetWarning,0822.5,5.01,000.00,023.9,022.5,000.0,032.3,025.5,014.9,0000.0,0004.82,0007.84,0004.27
2024-05-17 15:56:00,SystemResetWarning,0822.5,5.00,000.00,023.9,022.8,000.0,032.2,025.6,015.0,0000.0,0004.84,0007.72,0004.32
2024-05-17 15:57:00,SystemResetWarning,0822.9,4.99,000.00,024.0,023.1,000.0,032.2,025.7,014.6,0000.0,0004.90,0007.79,0004.38
2024-05-17 15:58:00,SystemResetWarning,0822.9,5.00,000.00,024.1,023.3,000.0,032.2,025.9,015.0,0000.0,0004.95,0008.05,0004.42
2024-05-17 15:59:00,SystemResetWarning,0822.5,5.00,000.00,024.1,023.5,000.0,032.2,026.0,015.4,0000.0,0005.04,0008.44,0004.47
